WMT7DH LIMF-LRIA

Flight info

Callsign WMT7DH
Flight time 2h 3m
Altitude 39000
Route MMP DCT SRN DCT OSKOR DCT NEVNI DCT ELTAR DCT SOVOX DCT PODET DCT KOPRY DCT BUDOP DCT TOMUC P133 ARPIG
Aircraft A320/M-SDE3FGHIRWY/LB1

Departure

Time 2026-04-27 18:56
Airport Turin Airport (LIMF)

Arrival

Time 2026-04-27 21:00
Airport Iaşi International Airport (LRIA)
Time Latitude Longitude Altitude Speed Heading
2026-04-27 18:35 45.19063 7.64501 986 ft 0 kts 257°
2026-04-27 18:49 45.19068 7.64533 993 ft 4 kts 257°
2026-04-27 18:49 45.19074 7.64570 990 ft 4 kts 256°
2026-04-27 18:49 45.19081 7.64607 986 ft 4 kts 253°
2026-04-27 18:50 45.19090 7.64642 988 ft 4 kts 232°
2026-04-27 18:50 45.19104 7.64658 990 ft 0 kts 182°
2026-04-27 18:53 45.19043 7.64654 988 ft 10 kts 183°
2026-04-27 18:53 45.18962 7.64648 990 ft 14 kts 183°
2026-04-27 18:53 45.18846 7.64641 989 ft 19 kts 182°
2026-04-27 18:53 45.18800 7.64687 990 ft 1 kts 110°
2026-04-27 18:54 45.18794 7.64713 987 ft 4 kts 103°
2026-04-27 18:54 45.18792 7.64779 982 ft 9 kts 92°
2026-04-27 18:54 45.18815 7.64878 991 ft 12 kts 32°
2026-04-27 18:54 45.18849 7.64885 981 ft 0 kts
2026-04-27 18:55 45.18851 7.64885 981 ft 0 kts
2026-04-27 18:55 45.18964 7.64891 981 ft 49 kts
2026-04-27 18:55 45.19532 7.64928 991 ft 111 kts
2026-04-27 18:56 45.20475 7.64989 985 ft 157 kts
2026-04-27 18:56 45.21616 7.65078 1421 ft 165 kts
2026-04-27 18:56 45.22755 7.65185 2074 ft 164 kts
2026-04-27 18:56 45.23902 7.65267 2624 ft 166 kts
2026-04-27 18:57 45.25122 7.65318 2903 ft 187 kts
2026-04-27 18:57 45.26456 7.65726 3120 ft 210 kts 33°
2026-04-27 18:57 45.27360 7.67432 3398 ft 232 kts 76°
2026-04-27 18:57 45.27365 7.69512 3726 ft 251 kts 101°
2026-04-27 18:58 45.26925 7.72009 4311 ft 266 kts 107°
2026-04-27 18:58 45.26554 7.73687 4862 ft 270 kts 109°
2026-04-27 18:58 45.25764 7.77108 6013 ft 276 kts 105°
2026-04-27 18:58 45.25624 7.79837 6828 ft 281 kts 81°
2026-04-27 18:59 45.26296 7.82430 7634 ft 283 kts 59°
2026-04-27 18:59 45.27313 7.84838 8482 ft 285 kts 58°
2026-04-27 18:59 45.28346 7.87267 9343 ft 287 kts 58°
2026-04-27 18:59 45.29381 7.89709 10144 ft 290 kts 58°
2026-04-27 19:00 45.30456 7.92246 10473 ft 311 kts 58°
2026-04-27 19:00 45.31611 7.94978 10751 ft 330 kts 58°
2026-04-27 19:00 45.32804 7.97813 11345 ft 337 kts 58°
2026-04-27 19:00 45.34014 8.00706 12020 ft 341 kts 58°
2026-04-27 19:01 45.35107 8.03327 12618 ft 345 kts 58°
2026-04-27 19:01 45.36338 8.06282 13284 ft 349 kts 58°
2026-04-27 19:01 45.37584 8.09271 13921 ft 353 kts 58°
2026-04-27 19:01 45.38832 8.12267 14494 ft 357 kts 58°
2026-04-27 19:02 45.40108 8.15327 15069 ft 361 kts 58°
2026-04-27 19:02 45.41396 8.18419 15650 ft 364 kts 58°
2026-04-27 19:02 45.42696 8.21540 16242 ft 368 kts 58°
2026-04-27 19:02 45.44007 8.24692 16814 ft 371 kts 58°
2026-04-27 19:03 45.45327 8.27868 17392 ft 374 kts 58°
2026-04-27 19:03 45.46244 8.30080 17780 ft 377 kts 58°
2026-04-27 19:03 45.47547 8.33225 18326 ft 380 kts 58°
2026-04-27 19:03 45.48437 8.35376 18664 ft 383 kts 58°
2026-04-27 19:04 45.50261 8.39788 19354 ft 387 kts 58°
2026-04-27 19:04 45.51618 8.43076 19864 ft 390 kts 58°
2026-04-27 19:04 45.52986 8.46397 20377 ft 393 kts 58°
2026-04-27 19:04 45.54377 8.49778 20871 ft 396 kts 58°
2026-04-27 19:05 45.55778 8.53189 21351 ft 399 kts 58°
2026-04-27 19:05 45.57186 8.56626 21826 ft 402 kts 58°
2026-04-27 19:05 45.58606 8.60092 22297 ft 405 kts 58°
2026-04-27 19:05 45.60037 8.63585 22760 ft 408 kts 58°
2026-04-27 19:06 45.61476 8.67096 23228 ft 411 kts 58°
2026-04-27 19:06 45.62830 8.70732 23680 ft 416 kts 65°
2026-04-27 19:06 45.63754 8.74671 24059 ft 421 kts 75°
2026-04-27 19:06 45.64179 8.78777 24440 ft 425 kts 85°
2026-04-27 19:07 45.64268 8.83013 24822 ft 428 kts 87°
2026-04-27 19:07 45.64346 8.87282 25203 ft 430 kts 87°
2026-04-27 19:07 45.64425 8.91579 25588 ft 432 kts 87°
2026-04-27 19:07 45.64500 8.95880 25964 ft 435 kts 87°
2026-04-27 19:08 45.64572 9.00215 26336 ft 437 kts 87°
2026-04-27 19:08 45.64640 9.04591 26705 ft 440 kts 88°
2026-04-27 19:08 45.64686 9.08968 27053 ft 442 kts 88°
2026-04-27 19:08 45.64714 9.13401 27411 ft 445 kts 88°
2026-04-27 19:09 45.64733 9.17837 27763 ft 448 kts 88°
2026-04-27 19:09 45.64750 9.22252 28123 ft 450 kts 88°
2026-04-27 19:09 45.64767 9.26800 28598 ft 452 kts 88°
2026-04-27 19:09 45.64787 9.31255 28972 ft 455 kts 88°
2026-04-27 19:10 45.64811 9.35687 29331 ft 457 kts 88°
2026-04-27 19:10 45.64829 9.39183 29621 ft 458 kts 87°
2026-04-27 19:10 45.64935 9.41690 29492 ft 460 kts 77°
2026-04-27 19:10 45.65521 9.44561 29289 ft 467 kts 67°
2026-04-27 19:11 45.66642 9.50531 30009 ft 466 kts 85°
2026-04-27 19:11 45.66493 9.55172 30325 ft 468 kts 97°
2026-04-27 19:11 45.65931 9.59765 30655 ft 470 kts 99°
2026-04-27 19:11 45.65339 9.64369 31081 ft 468 kts 99°
2026-04-27 19:12 45.64847 9.68905 31512 ft 466 kts 94°
2026-04-27 19:12 45.64626 9.73522 31944 ft 464 kts 90°
2026-04-27 19:12 45.64605 9.78131 32379 ft 462 kts 87°
2026-04-27 19:12 45.64699 9.82730 32816 ft 461 kts 85°
2026-04-27 19:13 45.64827 9.87294 33252 ft 460 kts 85°
2026-04-27 19:13 45.64902 9.90326 33545 ft 460 kts 86°
2026-04-27 19:13 45.64980 9.94906 34001 ft 459 kts 86°
2026-04-27 19:13 45.65010 9.99445 34383 ft 459 kts 87°
2026-04-27 19:14 45.65004 10.04027 34725 ft 458 kts 88°
2026-04-27 19:14 45.64976 10.08588 35045 ft 458 kts 88°
2026-04-27 19:14 45.64944 10.13141 35358 ft 458 kts 88°
2026-04-27 19:14 45.64916 10.17704 35686 ft 458 kts 88°
2026-04-27 19:15 45.64894 10.22253 35965 ft 458 kts 88°
2026-04-27 19:15 45.64881 10.26813 36267 ft 458 kts 88°
2026-04-27 19:15 45.64873 10.31362 36575 ft 457 kts 88°
2026-04-27 19:15 45.64862 10.35917 36830 ft 457 kts 88°
2026-04-27 19:16 45.64845 10.40459 37111 ft 457 kts 88°
2026-04-27 19:16 45.64832 10.43479 37301 ft 457 kts 88°
2026-04-27 19:16 45.64810 10.49548 37671 ft 457 kts 88°
2026-04-27 19:16 45.64789 10.54104 37934 ft 457 kts 88°
2026-04-27 19:17 45.64767 10.58643 38206 ft 456 kts 88°
2026-04-27 19:17 45.64855 10.63113 38476 ft 453 kts 81°
2026-04-27 19:17 45.65331 10.67547 38698 ft 452 kts 77°
2026-04-27 19:17 45.65879 10.71975 38890 ft 452 kts 77°
2026-04-27 19:18 45.66429 10.76471 39030 ft 453 kts 77°
2026-04-27 19:18 45.67494 10.85356 39076 ft 458 kts 77°
2026-04-27 19:19 45.68560 10.94347 39075 ft 459 kts 77°
2026-04-27 19:19 45.69628 11.03362 39078 ft 459 kts 77°
2026-04-27 19:20 45.70683 11.12385 39085 ft 459 kts 77°
2026-04-27 19:20 45.71734 11.21409 39084 ft 459 kts 77°
2026-04-27 19:21 45.72786 11.30454 39087 ft 460 kts 78°
2026-04-27 19:21 45.73826 11.39494 39090 ft 461 kts 78°
2026-04-27 19:22 45.74849 11.48506 39095 ft 461 kts 78°
2026-04-27 19:22 45.75877 11.57596 39095 ft 461 kts 78°
2026-04-27 19:23 45.76900 11.66666 39098 ft 461 kts 78°
2026-04-27 19:23 45.77916 11.75718 39101 ft 461 kts 78°
2026-04-27 19:24 45.78907 11.84675 39097 ft 460 kts 78°
2026-04-27 19:24 45.79907 11.93763 39101 ft 460 kts 78°
2026-04-27 19:25 45.80892 12.02769 39102 ft 460 kts 78°
2026-04-27 19:25 45.81871 12.11845 39103 ft 460 kts 78°
2026-04-27 19:26 45.82849 12.20923 39101 ft 460 kts 78°
2026-04-27 19:26 45.83822 12.29999 39098 ft 460 kts 78°
2026-04-27 19:27 45.84784 12.39070 39108 ft 459 kts 78°
2026-04-27 19:27 45.85731 12.48095 39111 ft 459 kts 78°
2026-04-27 19:28 45.86676 12.57164 39114 ft 459 kts 79°
2026-04-27 19:28 45.87612 12.66233 39110 ft 459 kts 79°
2026-04-27 19:29 45.88545 12.75319 39111 ft 459 kts 79°
2026-04-27 19:29 45.89466 12.84403 39099 ft 459 kts 79°
2026-04-27 19:30 45.90375 12.93495 39104 ft 460 kts 79°
2026-04-27 19:30 45.91294 13.02599 39104 ft 460 kts 79°
2026-04-27 19:31 45.92205 13.11654 39107 ft 460 kts 79°
2026-04-27 19:31 45.93100 13.20760 39104 ft 460 kts 79°
2026-04-27 19:32 45.93979 13.29848 39102 ft 460 kts 79°
2026-04-27 19:32 45.94861 13.38959 39107 ft 460 kts 79°
2026-04-27 19:33 45.95743 13.48075 39104 ft 460 kts 79°
2026-04-27 19:33 45.96603 13.57141 39106 ft 460 kts 79°
2026-04-27 19:34 45.97494 13.66256 39112 ft 460 kts 78°
2026-04-27 19:34 45.98499 13.75335 39121 ft 459 kts 77°
2026-04-27 19:35 45.99519 13.84430 39126 ft 460 kts 78°
2026-04-27 19:35 46.00501 13.93521 39137 ft 460 kts 78°
2026-04-27 19:36 46.01454 14.02610 39143 ft 460 kts 78°
2026-04-27 19:36 46.02401 14.11729 39148 ft 460 kts 78°
2026-04-27 19:37 46.03346 14.20837 39154 ft 460 kts 78°
2026-04-27 19:37 46.04289 14.29950 39156 ft 461 kts 78°
2026-04-27 19:38 46.05228 14.39087 39158 ft 461 kts 78°
2026-04-27 19:38 46.06153 14.48210 39161 ft 461 kts 78°
2026-04-27 19:39 46.07074 14.57344 39165 ft 461 kts 78°
2026-04-27 19:39 46.07990 14.66474 39163 ft 461 kts 78°
2026-04-27 19:40 46.08898 14.75607 39169 ft 460 kts 78°
2026-04-27 19:40 46.09797 14.84799 39170 ft 460 kts 79°
2026-04-27 19:41 46.10690 14.93928 39168 ft 460 kts 79°
2026-04-27 19:41 46.11573 15.03068 39173 ft 460 kts 79°
2026-04-27 19:42 46.12446 15.12203 39170 ft 460 kts 79°
2026-04-27 19:42 46.13317 15.21334 39177 ft 460 kts 79°
2026-04-27 19:43 46.14177 15.30476 39181 ft 460 kts 79°
2026-04-27 19:43 46.15028 15.39617 39177 ft 460 kts 79°
2026-04-27 19:44 46.15872 15.48748 39179 ft 460 kts 79°
2026-04-27 19:44 46.16703 15.57886 39184 ft 459 kts 79°
2026-04-27 19:45 46.17481 15.67044 39176 ft 460 kts 81°
2026-04-27 19:45 46.17941 15.74746 39174 ft 460 kts 83°
2026-04-27 19:46 46.18380 15.83952 39178 ft 460 kts 83°
2026-04-27 19:46 46.18838 15.93144 39177 ft 459 kts 83°
2026-04-27 19:47 46.19336 16.02333 39178 ft 459 kts 82°
2026-04-27 19:47 46.19847 16.11505 39178 ft 458 kts 82°
2026-04-27 19:48 46.20340 16.20665 39174 ft 458 kts 83°
2026-04-27 19:48 46.20812 16.29831 39171 ft 458 kts 83°
2026-04-27 19:49 46.21278 16.38997 39173 ft 457 kts 83°
2026-04-27 19:49 46.21740 16.48154 39171 ft 457 kts 83°
2026-04-27 19:50 46.22191 16.57315 39172 ft 458 kts 83°
2026-04-27 19:50 46.22640 16.66493 39172 ft 458 kts 83°
2026-04-27 19:51 46.23075 16.75663 39171 ft 458 kts 83°
2026-04-27 19:51 46.23509 16.84839 39170 ft 458 kts 83°
2026-04-27 19:52 46.24370 16.93905 39173 ft 455 kts 77°
2026-04-27 19:52 46.25445 17.02927 39175 ft 455 kts 76°
2026-04-27 19:53 46.27074 17.16519 39176 ft 456 kts 77°
2026-04-27 19:53 46.28123 17.25557 39176 ft 456 kts 77°
2026-04-27 19:54 46.29152 17.34604 39175 ft 456 kts 77°
2026-04-27 19:54 46.30185 17.43660 39181 ft 456 kts 77°
2026-04-27 19:55 46.31214 17.52699 39185 ft 456 kts 77°
2026-04-27 19:55 46.32234 17.61748 39177 ft 456 kts 77°
2026-04-27 19:56 46.33242 17.70791 39182 ft 456 kts 77°
2026-04-27 19:56 46.34231 17.79851 39176 ft 456 kts 77°
2026-04-27 19:57 46.35149 17.88206 39184 ft 456 kts 77°
2026-04-27 19:57 46.36143 17.97269 39185 ft 456 kts 77°
2026-04-27 19:58 46.37113 18.06296 39178 ft 456 kts 78°
2026-04-27 19:58 46.38080 18.15327 39174 ft 456 kts 77°
2026-04-27 19:59 46.39022 18.24183 39180 ft 456 kts 78°
2026-04-27 19:59 46.39983 18.33269 39180 ft 456 kts 78°
2026-04-27 20:00 46.40933 18.42284 39181 ft 456 kts 78°
2026-04-27 20:00 46.41872 18.51311 39184 ft 456 kts 78°
2026-04-27 20:01 46.42812 18.60417 39183 ft 456 kts 78°
2026-04-27 20:01 46.43743 18.69542 39180 ft 457 kts 78°
2026-04-27 20:02 46.44670 18.78659 39184 ft 457 kts 78°
2026-04-27 20:02 46.45591 18.87791 39190 ft 457 kts 78°
2026-04-27 20:03 46.46505 18.96932 39185 ft 457 kts 78°
2026-04-27 20:03 46.47409 19.06058 39186 ft 457 kts 78°
2026-04-27 20:04 46.48311 19.15196 39184 ft 458 kts 78°
2026-04-27 20:04 46.49055 19.22811 39185 ft 458 kts 78°
2026-04-27 20:05 46.50092 19.33526 39185 ft 459 kts 78°
2026-04-27 20:05 46.50967 19.42703 39184 ft 459 kts 79°
2026-04-27 20:06 46.51828 19.51844 39186 ft 459 kts 79°
2026-04-27 20:06 46.52692 19.61022 39187 ft 459 kts 79°
2026-04-27 20:07 46.53559 19.70275 39187 ft 459 kts 79°
2026-04-27 20:07 46.54404 19.79475 39188 ft 460 kts 79°
2026-04-27 20:08 46.55245 19.88706 39185 ft 460 kts 79°
2026-04-27 20:08 46.56083 19.97879 39192 ft 461 kts 79°
2026-04-27 20:09 46.56922 20.07148 39190 ft 461 kts 79°
2026-04-27 20:09 46.57743 20.16401 39184 ft 462 kts 79°
2026-04-27 20:10 46.58553 20.25668 39184 ft 462 kts 79°
2026-04-27 20:10 46.59364 20.34942 39184 ft 463 kts 79°
2026-04-27 20:11 46.60174 20.44238 39186 ft 463 kts 79°
2026-04-27 20:11 46.60979 20.53547 39184 ft 464 kts 79°
2026-04-27 20:12 46.61636 20.61278 39188 ft 464 kts 79°
2026-04-27 20:12 46.62550 20.72192 39193 ft 465 kts 79°
2026-04-27 20:13 46.63325 20.81523 39188 ft 465 kts 79°
2026-04-27 20:13 46.64095 20.90886 39196 ft 465 kts 79°
2026-04-27 20:14 46.64860 21.00231 39194 ft 465 kts 79°
2026-04-27 20:14 46.65619 21.09588 39197 ft 465 kts 80°
2026-04-27 20:15 46.66371 21.18952 39200 ft 465 kts 80°
2026-04-27 20:15 46.67110 21.28317 39198 ft 465 kts 80°
2026-04-27 20:16 46.67846 21.37691 39201 ft 466 kts 80°
2026-04-27 20:16 46.68559 21.47008 39199 ft 466 kts 80°
2026-04-27 20:17 46.69921 21.56157 39204 ft 461 kts 71°
2026-04-27 20:17 46.71287 21.63745 39205 ft 462 kts 71°
2026-04-27 20:18 46.72889 21.72764 39212 ft 462 kts 72°
2026-04-27 20:18 46.74490 21.81858 39214 ft 463 kts 72°
2026-04-27 20:19 46.76093 21.90961 39215 ft 463 kts 72°
2026-04-27 20:19 46.77694 22.00060 39217 ft 463 kts 72°
2026-04-27 20:20 46.79285 22.09175 39224 ft 463 kts 72°
2026-04-27 20:20 46.80862 22.18284 39224 ft 463 kts 72°
2026-04-27 20:21 46.82432 22.27417 39227 ft 463 kts 72°
2026-04-27 20:21 46.83998 22.36547 39235 ft 463 kts 72°
2026-04-27 20:22 46.85565 22.45685 39238 ft 463 kts 72°
2026-04-27 20:22 46.87122 22.54842 39242 ft 464 kts 72°
2026-04-27 20:23 46.88668 22.64010 39245 ft 464 kts 72°
2026-04-27 20:23 46.90202 22.73193 39252 ft 464 kts 72°
2026-04-27 20:24 46.91727 22.82329 39248 ft 465 kts 72°
2026-04-27 20:24 46.93265 22.91525 39251 ft 465 kts 72°
2026-04-27 20:25 46.94804 23.00777 39254 ft 465 kts 72°
2026-04-27 20:25 46.96319 23.09989 39253 ft 465 kts 73°
2026-04-27 20:26 46.97820 23.19211 39252 ft 465 kts 73°
2026-04-27 20:26 46.99316 23.28439 39250 ft 465 kts 73°
2026-04-27 20:27 47.00805 23.37672 39243 ft 465 kts 73°
2026-04-27 20:27 47.02295 23.46906 39239 ft 465 kts 73°
2026-04-27 20:28 47.03775 23.56148 39236 ft 465 kts 73°
2026-04-27 20:28 47.04993 23.63826 39238 ft 465 kts 73°
2026-04-27 20:29 47.06695 23.74582 39237 ft 466 kts 73°
2026-04-27 20:29 47.08155 23.83858 39242 ft 466 kts 73°
2026-04-27 20:30 47.09603 23.93127 39250 ft 466 kts 73°
2026-04-27 20:30 47.11053 24.02422 39254 ft 467 kts 73°
2026-04-27 20:31 47.12499 24.11735 39251 ft 467 kts 74°
2026-04-27 20:31 47.13933 24.21063 39254 ft 467 kts 74°
2026-04-27 20:32 47.15352 24.30378 39251 ft 468 kts 74°
2026-04-27 20:32 47.16761 24.39667 39254 ft 468 kts 74°
2026-04-27 20:33 47.18175 24.49015 39255 ft 468 kts 74°
2026-04-27 20:33 47.19579 24.58375 39251 ft 468 kts 74°
2026-04-27 20:34 47.20974 24.67734 39254 ft 468 kts 74°
2026-04-27 20:34 47.22361 24.77103 39256 ft 469 kts 75°
2026-04-27 20:35 47.23747 24.86491 39238 ft 470 kts 75°
2026-04-27 20:35 47.24436 24.91182 39017 ft 469 kts 75°
2026-04-27 20:35 47.25115 24.95833 38770 ft 469 kts 75°
2026-04-27 20:36 47.25797 25.00527 38487 ft 469 kts 75°
2026-04-27 20:36 47.26483 25.05232 38210 ft 469 kts 74°
2026-04-27 20:36 47.27168 25.09924 37938 ft 469 kts 75°
2026-04-27 20:36 47.27846 25.14617 37670 ft 469 kts 75°
2026-04-27 20:37 47.28521 25.19326 37401 ft 469 kts 75°
2026-04-27 20:37 47.29195 25.24046 36884 ft 471 kts 74°
2026-04-27 20:37 47.29873 25.28789 36177 ft 474 kts 74°
2026-04-27 20:37 47.30550 25.33536 35601 ft 474 kts 74°
2026-04-27 20:38 47.31226 25.38277 35111 ft 471 kts 74°
2026-04-27 20:38 47.31899 25.43003 34602 ft 470 kts 74°
2026-04-27 20:38 47.32569 25.47712 34040 ft 469 kts 74°
2026-04-27 20:38 47.33237 25.52425 33512 ft 466 kts 74°
2026-04-27 20:39 47.33883 25.57022 32981 ft 463 kts 74°
2026-04-27 20:39 47.34530 25.61663 32458 ft 460 kts 73°
2026-04-27 20:39 47.35172 25.66272 31936 ft 458 kts 73°
2026-04-27 20:39 47.35809 25.70856 31412 ft 454 kts 73°
2026-04-27 20:40 47.36448 25.75457 30892 ft 452 kts 73°
2026-04-27 20:40 47.37074 25.79980 30384 ft 449 kts 73°
2026-04-27 20:40 47.37696 25.84491 29843 ft 445 kts 73°
2026-04-27 20:40 47.38307 25.88935 29358 ft 440 kts 73°
2026-04-27 20:41 47.38911 25.93340 28888 ft 436 kts 73°
2026-04-27 20:41 47.39507 25.97709 28418 ft 431 kts 74°
2026-04-27 20:41 47.40093 26.02026 27978 ft 427 kts 74°
2026-04-27 20:41 47.40673 26.06298 27524 ft 423 kts 74°
2026-04-27 20:42 47.41249 26.10537 27084 ft 420 kts 74°
2026-04-27 20:42 47.41824 26.14759 26641 ft 417 kts 74°
2026-04-27 20:42 47.42389 26.18938 26204 ft 415 kts 74°
2026-04-27 20:42 47.42951 26.23108 25762 ft 413 kts 74°
2026-04-27 20:43 47.43506 26.27265 25313 ft 412 kts 75°
2026-04-27 20:43 47.44053 26.31404 24848 ft 410 kts 75°
2026-04-27 20:43 47.44601 26.35542 24390 ft 409 kts 75°
2026-04-27 20:43 47.45147 26.39659 23906 ft 409 kts 75°
2026-04-27 20:44 47.45693 26.43781 23385 ft 408 kts 75°
2026-04-27 20:44 47.46237 26.47878 22902 ft 405 kts 75°
2026-04-27 20:44 47.46775 26.51956 22424 ft 402 kts 75°
2026-04-27 20:44 47.47309 26.56005 21934 ft 400 kts 75°
2026-04-27 20:45 47.47837 26.60017 21462 ft 397 kts 75°
2026-04-27 20:45 47.48359 26.64013 20964 ft 395 kts 76°
2026-04-27 20:45 47.48528 26.68115 20172 ft 407 kts 95°
2026-04-27 20:45 47.47871 26.72106 19686 ft 394 kts 109°
2026-04-27 20:46 47.46970 26.75857 19223 ft 381 kts 109°
2026-04-27 20:46 47.46088 26.79485 18764 ft 370 kts 109°
2026-04-27 20:46 47.45227 26.83016 18307 ft 362 kts 109°
2026-04-27 20:46 47.44370 26.86516 17829 ft 363 kts 109°
2026-04-27 20:47 47.43508 26.90024 17381 ft 363 kts 109°
2026-04-27 20:47 47.42649 26.93526 16931 ft 362 kts 109°
2026-04-27 20:47 47.41779 26.97070 16483 ft 362 kts 109°
2026-04-27 20:47 47.40922 27.00550 16170 ft 357 kts 109°
2026-04-27 20:48 47.40085 27.03947 15615 ft 350 kts 109°
2026-04-27 20:48 47.39536 27.06178 15208 ft 347 kts 109°
2026-04-27 20:48 47.38719 27.09496 14607 ft 343 kts 109°
2026-04-27 20:48 47.37671 27.13740 13835 ft 338 kts 109°
2026-04-27 20:49 47.37164 27.15788 13419 ft 335 kts 109°
2026-04-27 20:49 47.36371 27.18989 12797 ft 330 kts 108°
2026-04-27 20:49 47.35971 27.22268 12158 ft 322 kts 85°
2026-04-27 20:49 47.36410 27.25413 11754 ft 312 kts 69°
2026-04-27 20:50 47.37102 27.28462 11250 ft 313 kts 68°
2026-04-27 20:50 47.37824 27.31465 10628 ft 308 kts 64°
2026-04-27 20:50 47.38768 27.34272 10032 ft 302 kts 57°
2026-04-27 20:50 47.39944 27.36747 9486 ft 289 kts 43°
2026-04-27 20:51 47.41379 27.38760 8953 ft 281 kts 38°
2026-04-27 20:51 47.42836 27.40631 8421 ft 274 kts 35°
2026-04-27 20:51 47.44478 27.41841 7972 ft 259 kts
2026-04-27 20:51 47.46210 27.41712 7597 ft 249 kts 340°
2026-04-27 20:52 47.47800 27.40620 7205 ft 250 kts 323°
2026-04-27 20:52 47.48884 27.38681 6829 ft 252 kts 294°
2026-04-27 20:52 47.49156 27.36102 6537 ft 254 kts 264°
2026-04-27 20:52 47.48535 27.33731 6348 ft 252 kts 237°
2026-04-27 20:53 47.47264 27.31995 6232 ft 248 kts 211°
2026-04-27 20:53 47.45661 27.31239 6171 ft 240 kts 185°
2026-04-27 20:53 47.44048 27.31534 6112 ft 231 kts 160°
2026-04-27 20:53 47.42669 27.32773 6055 ft 241 kts 135°
2026-04-27 20:54 47.40459 27.36600 5614 ft 244 kts 130°
2026-04-27 20:54 47.39370 27.38514 5356 ft 242 kts 130°
2026-04-27 20:54 47.38371 27.40259 5108 ft 240 kts 130°
2026-04-27 20:55 47.37857 27.41173 4986 ft 239 kts 128°
2026-04-27 20:55 47.36865 27.43082 4721 ft 237 kts 129°
2026-04-27 20:55 47.35809 27.44936 4453 ft 235 kts 131°
2026-04-27 20:55 47.34742 27.46746 4200 ft 232 kts 132°
2026-04-27 20:56 47.33530 27.48301 3852 ft 231 kts 148°
2026-04-27 20:56 47.32160 27.49513 3531 ft 227 kts 150°
2026-04-27 20:56 47.30826 27.50677 3228 ft 218 kts 150°
2026-04-27 20:56 47.29557 27.51806 2935 ft 209 kts 149°
2026-04-27 20:57 47.28333 27.52899 2664 ft 204 kts 149°
2026-04-27 20:57 47.27174 27.53934 2401 ft 196 kts 149°
2026-04-27 20:57 47.26048 27.54940 2140 ft 181 kts 149°
2026-04-27 20:57 47.25040 27.55840 1916 ft 157 kts 149°
2026-04-27 20:58 47.24157 27.56628 1693 ft 143 kts 149°
2026-04-27 20:58 47.23322 27.57372 1494 ft 138 kts 149°
2026-04-27 20:58 47.22505 27.58099 1304 ft 137 kts 149°
2026-04-27 20:58 47.21695 27.58820 1102 ft 136 kts 148°
2026-04-27 20:59 47.20893 27.59550 926 ft 136 kts 147°
2026-04-27 20:59 47.20093 27.60280 739 ft 135 kts 148°
2026-04-27 20:59 47.19289 27.60972 546 ft 134 kts 148°
2026-04-27 20:59 47.18484 27.61689 397 ft 126 kts 148°
2026-04-27 21:00 47.17963 27.62152 372 ft 54 kts 149°
2026-04-27 21:00 47.17748 27.62341 363 ft 35 kts 148°
2026-04-27 21:00 47.17647 27.62433 359 ft 37 kts 148°
2026-04-27 21:00 47.17462 27.62597 356 ft 22 kts 149°
2026-04-27 21:01 47.17346 27.62575 354 ft 11 kts 255°
2026-04-27 21:01 47.17320 27.62505 361 ft 7 kts 236°
2026-04-27 21:01 47.17279 27.62421 362 ft 16 kts 234°
2026-04-27 21:01 47.17296 27.62279 370 ft 15 kts 324°
2026-04-27 21:02 47.17392 27.62193 373 ft 18 kts 329°
2026-04-27 21:02 47.17503 27.62095 373 ft 15 kts 331°
2026-04-27 21:02 47.17530 27.62026 373 ft 3 kts 255°
2026-04-27 21:02 47.17530 27.61989 374 ft 5 kts 273°
2026-04-27 21:03 47.17530 27.61972 374 ft 0 kts 273°